| time (UTC) | temp F | wind direction | speed MPH | gust MPH | rain 1hr in | rain 24hr in | rain mn in | humidity % | barometer mb |
| 20260904121259 | 61 | 100 | 0.0 | 0.0 | 0.00 | 0.00 | 0.00 | 82 | 1016.6 |
| 20260904120757 | 61 | 98 | 0.0 | 0.0 | 0.00 | 0.00 | 0.00 | 86 | 1016.4 |
| 20260904120033 | 61 | 97 | 0.0 | 0.0 | 0.00 | 0.00 | 0.00 | 86 | 1016.2 |
| 20260904115249 | 60 | 0.0 | 0.0 | 0.00 | 0.00 | 0.00 | 88 | ||
| 20260904114328 | 60 | 89 | 0.0 | 0.0 | 0.00 | 0.00 | 0.00 | 89 | 1016.3 |
| 20260904113828 | 60 | 0.0 | 0.0 | 0.00 | 0.00 | 0.00 | 89 | ||
| 20260904112830 | 60 | 91 | 0.0 | 0.0 | 0.00 | 0.00 | 0.00 | 90 | 1016.2 |
| 20260904112044 | 60 | 0.0 | 0.0 | 0.00 | 0.00 | 0.00 | 90 | ||
| 20260904111540 | 60 | 116 | 0.0 | 0.0 | 0.00 | 0.00 | 0.00 | 90 | 1016.2 |
| 20260904110808 | 59 | 0.0 | 0.0 | 0.00 | 0.00 | 0.00 | 90 | ||
| 20260904110053 | 59 | 175 | 0.0 | 0.0 | 0.00 | 0.00 | 0.00 | 90 | 1016.2 |
| 20260904105307 | 58 | 0.0 | 0.0 | 0.00 | 0.00 | 0.00 | 90 | ||
| 20260904104335 | 58 | 219 | 0.0 | 0.0 | 0.00 | 0.00 | 0.00 | 90 | 1016.3 |
| 20260904103825 | 58 | 0.0 | 0.0 | 0.00 | 0.00 | 0.00 | 90 | ||
| 20260904102749 | 58 | 224 | 0.0 | 0.0 | 0.00 | 0.00 | 0.00 | 90 | 1016.1 |
| 20260904102238 | 58 | 0.0 | 0.0 | 0.00 | 0.00 | 0.00 | 90 | ||
| 20260904101304 | 58 | 224 | 0.0 | 0.0 | 0.00 | 0.00 | 0.00 | 90 | 1016.1 |
| 20260904101030 | 58 | 0.0 | 0.0 | 0.00 | 0.00 | 0.00 | 90 | ||
| 20260904095836 | 58 | 224 | 0.0 | 0.0 | 0.00 | 0.00 | 0.00 | 90 | 1015.9 |
| 20260904095329 | 58 | 0.0 | 0.0 | 0.00 | 0.00 | 0.00 | 89 | ||
| 20260904094240 | 58 | 224 | 0.0 | 0.0 | 0.00 | 0.00 | 0.00 | 89 | 1015.6 |
| 20260904093732 | 59 | 0.0 | 0.0 | 0.00 | 0.00 | 0.00 | 89 | ||
| 20260904092731 | 59 | 224 | 0.0 | 0.0 | 0.00 | 0.00 | 0.00 | 89 | 1015.3 |
| 20260904092230 | 59 | 0.0 | 0.0 | 0.00 | 0.00 | 0.00 | 89 | ||
| 20260904091230 | 59 | 224 | 0.0 | 0.0 | 0.00 | 0.00 | 0.00 | 89 | 1015.0 |
| 20260904090730 | 59 | 224 | 0.0 | 0.0 | 0.00 | 0.00 | 0.00 | 89 | 1015.0 |
| 20260904090054 | 59 | 224 | 0.0 | 0.0 | 0.00 | 0.00 | 0.00 | 89 | 1014.9 |
| 20260904085306 | 60 | 224 | 0.0 | 0.0 | 0.00 | 0.00 | 0.00 | 89 | 1014.7 |
| 20260904084306 | 60 | 224 | 0.0 | 0.0 | 0.00 | 0.00 | 0.00 | 89 | 1014.7 |
| 20260904083753 | 60 | 0.0 | 0.0 | 0.00 | 0.00 | 0.00 | 89 | ||
| 20260904082732 | 60 | 224 | 0.0 | 0.0 | 0.00 | 0.00 | 0.00 | 89 | 1014.7 |
| 20260904082227 | 60 | 224 | 0.0 | 0.0 | 0.00 | 0.00 | 0.00 | 89 | 1014.7 |
| 20260904081549 | 60 | 224 | 0.0 | 0.0 | 0.00 | 0.00 | 0.00 | 89 | 1014.5 |
| 20260904080807 | 60 | 0.0 | 0.0 | 0.00 | 0.00 | 0.00 | 89 | ||
| 20260904075842 | 60 | 224 | 0.0 | 0.0 | 0.00 | 0.00 | 0.00 | 89 | 1014.4 |
| 20260904075330 | 60 | 0.0 | 0.0 | 0.00 | 0.00 | 0.00 | 89 | ||
| 20260904073751 | 60 | 0.0 | 0.0 | 0.00 | 0.00 | 0.00 | 89 | ||
| 20260904072747 | 60 | 229 | 0.0 | 0.0 | 0.00 | 0.00 | 0.00 | 89 | 1014.1 |
| 20260904072004 | 60 | 229 | 0.0 | 0.0 | 0.00 | 0.00 | 0.00 | 88 | |
| 20260904071429 | 60 | 229 | 0.0 | 0.0 | 0.00 | 0.00 | 0.00 | 88 | 1014.0 |
| 20260904071411 | 60 | 0.0 | 0.0 | 0.00 | 0.00 | 0.00 | 88 | ||
| 20260904065841 | 60 | 229 | 0.0 | 0.0 | 0.00 | 0.00 | 0.00 | 88 | 1013.9 |
| 20260904065332 | 60 | 0.0 | 0.0 | 0.00 | 0.00 | 0.00 | 88 | ||
| 20260904064330 | 60 | 212 | 0.0 | 0.0 | 0.00 | 0.00 | 0.00 | 88 | 1013.4 |
| 20260904063820 | 60 | 0.0 | 0.0 | 0.00 | 0.00 | 0.00 | 88 | ||
| 20260904062825 | 60 | 212 | 0.0 | 0.0 | 0.00 | 0.00 | 0.00 | 88 | 1013.2 |
| 20260904062313 | 60 | 0.0 | 0.0 | 0.00 | 0.00 | 0.00 | 88 | ||
| 20260904061248 | 60 | 212 | 2.0 | 1.0 | 0.00 | 0.00 | 0.00 | 88 | 1013.3 |
| 20260904060738 | 60 | 0.0 | 0.0 | 0.00 | 0.00 | 0.00 | 88 | ||
| 20260904055255 | 60 | 0.0 | 0.0 | 0.00 | 0.00 | 0.00 | 88 | ||
| 20260904054330 | 60 | 216 | 2.0 | 5.0 | 0.00 | 0.00 | 0.00 | 88 | 1013.2 |
| 20260904053806 | 61 | 0.0 | 0.0 | 0.00 | 0.00 | 0.00 | 88 | ||
| 20260904052752 | 61 | 220 | 0.0 | 0.0 | 0.00 | 0.00 | 0.00 | 88 | 1013.0 |
| 20260904052250 | 61 | 0.0 | 0.0 | 0.00 | 0.00 | 0.00 | 88 | ||
| 20260904051603 | 61 | 216 | 0.0 | 0.0 | 0.00 | 0.00 | 0.00 | 88 | 1012.9 |
| 20260904050830 | 61 | 0.0 | 0.0 | 0.00 | 0.00 | 0.00 | 88 | ||
| 20260904045808 | 61 | 218 | 1.0 | 4.0 | 0.00 | 0.00 | 0.00 | 88 | 1012.9 |
| 20260904045259 | 61 | 0.0 | 0.0 | 0.00 | 0.00 | 0.00 | 87 | ||
| 20260904043737 | 61 | 0.0 | 0.0 | 0.00 | 0.00 | 0.00 | 87 | ||
| 20260904043047 | 61 | 75 | 0.0 | 1.0 | 0.00 | 0.00 | 0.00 | 87 | 1012.8 |
| 20260904042306 | 61 | 0.0 | 0.0 | 0.00 | 0.00 | 0.00 | 87 | ||
| 20260904041615 | 61 | 201 | 0.0 | 0.0 | 0.00 | 0.00 | 0.00 | 87 | 1013.1 |
| 20260904041100 | 61 | 0.0 | 0.0 | 0.00 | 0.00 | 0.00 | 86 | ||
| 20260904035757 | 61 | 94 | 0.0 | 1.0 | 0.00 | 0.00 | 0.00 | 86 | 1013.0 |
| 20260904035256 | 62 | 97 | 0.0 | 1.0 | 0.00 | 0.00 | 0.00 | 86 | 1013.0 |
| 20260904034537 | 62 | 133 | 0.0 | 1.0 | 0.00 | 0.00 | 0.00 | 86 | 1012.9 |
| 20260904033805 | 62 | 0.0 | 0.0 | 0.00 | 0.00 | 0.00 | 86 | ||
| 20260904032844 | 62 | 215 | 0.0 | 1.0 | 0.00 | 0.00 | 0.00 | 86 | 1013.0 |
| 20260904032328 | 62 | 0.0 | 0.0 | 0.00 | 0.00 | 0.00 | 86 | ||
| 20260904031511 | 62 | 99 | 0.0 | 1.0 | 0.00 | 0.00 | 0.00 | 86 | 1012.9 |
| 20260904031252 | 62 | 225 | 0.0 | 1.0 | 0.00 | 0.00 | 0.00 | 86 | 1013.0 |
| 20260904031132 | 62 | 0.0 | 0.0 | 0.00 | 0.00 | 0.00 | 86 | ||
| 20260904030105 | 62 | 218 | 0.0 | 0.0 | 0.00 | 0.00 | 0.00 | 86 | 1012.7 |
| 20260904025318 | 62 | 0.0 | 0.0 | 0.00 | 0.00 | 0.00 | 86 | ||
| 20260904024120 | 62 | 0.0 | 0.0 | 0.00 | 0.00 | 0.00 | 85 | ||
| 20260904022849 | 62 | 91 | 0.0 | 1.0 | 0.00 | 0.00 | 0.00 | 85 | 1012.4 |
| 20260904022600 | 63 | 0.0 | 0.0 | 0.00 | 0.00 | 0.00 | 84 | ||
| 20260904021329 | 63 | 45 | 1.0 | 8.0 | 0.00 | 0.00 | 0.00 | 84 | 1012.4 |
| 20260904020830 | 64 | 0.0 | 0.0 | 0.00 | 0.00 | 0.00 | 84 | ||
| 20260904020058 | 64 | 150 | 0.0 | 1.0 | 0.00 | 0.00 | 0.00 | 84 | 1012.2 |
| 20260904015327 | 65 | 0.0 | 0.0 | 0.00 | 0.00 | 0.00 | 84 | ||
| 20260904014301 | 65 | 118 | 0.0 | 1.0 | 0.00 | 0.00 | 0.00 | 84 | 1011.8 |
| 20260904012329 | 67 | 0.0 | 0.0 | 0.00 | 0.00 | 0.00 | 83 | ||
| 20260904011254 | 67 | 77 | 5.0 | 11.0 | 0.00 | 0.00 | 0.00 | 83 | 1011.5 |
| 20260904010746 | 68 | 0.0 | 0.0 | 0.00 | 0.00 | 0.00 | 80 | ||
| 20260904005821 | 69 | 136 | 2.0 | 9.0 | 0.00 | 0.00 | 0.00 | 80 | 1011.2 |
| 20260904005312 | 71 | 0.0 | 0.0 | 0.00 | 0.00 | 0.00 | 79 | ||
| 20260904004522 | 71 | 243 | 1.0 | 5.0 | 0.00 | 0.00 | 0.00 | 79 | 1011.9 |
| 20260904002734 | 72 | 119 | 0.0 | 0.0 | 0.00 | 0.00 | 0.00 | 79 | 1011.5 |
| 20260904002234 | 72 | 106 | 0.0 | 0.0 | 0.00 | 0.00 | 0.00 | 78 | 1011.3 |
| 20260904001324 | 72 | 106 | 0.0 | 0.0 | 0.00 | 0.00 | 0.00 | 78 | 1011.2 |
| 20260904000822 | 73 | 0.0 | 0.0 | 0.00 | 0.00 | 0.00 | 76 | ||
| 20260904000030 | 73 | 106 | 0.0 | 0.0 | 0.00 | 0.00 | 0.00 | 76 | 1011.1 |
| 20260903234743 | 74 | 226 | 0.0 | 0.0 | 0.00 | 0.00 | 0.00 | 73 | 1010.9 |
| 20260903234012 | 74 | 0.0 | 0.0 | 0.00 | 0.00 | 0.00 | 72 | ||
| 20260903232930 | 74 | 226 | 0.0 | 0.0 | 0.00 | 0.00 | 0.00 | 72 | 1010.7 |
| 20260903232427 | 74 | 226 | 0.0 | 0.0 | 0.00 | 0.00 | 0.00 | 72 | 1010.8 |
| 20260903232157 | 75 | 226 | 0.0 | 0.0 | 0.00 | 0.00 | 0.00 | 71 | 1010.9 |
| 20260903230903 | 75 | 0.0 | 0.0 | 0.00 | 0.00 | 0.00 | 70 | ||
| 20260903225817 | 75 | 226 | 0.0 | 0.0 | 0.00 | 0.00 | 0.00 | 70 | 1010.6 |
| 20260903225315 | 76 | 0.0 | 0.0 | 0.00 | 0.00 | 0.00 | 68 | ||
| 20260903224257 | 76 | 226 | 0.0 | 0.0 | 0.00 | 0.00 | 0.00 | 68 | 1010.2 |
| 20260903223750 | 76 | 0.0 | 0.0 | 0.00 | 0.00 | 0.00 | 67 | ||
| 20260903223332 | 76 | 226 | 0.0 | 0.0 | 0.00 | 0.00 | 0.00 | 67 | 1010.0 |
| 20260903222552 | 77 | 0.0 | 0.0 | 0.00 | 0.00 | 0.00 | 66 | 1009.9 | |
| 20260903221317 | 77 | 226 | 0.0 | 0.0 | 0.00 | 0.00 | 0.00 | 65 | 1009.6 |
| 20260903220810 | 77 | 0.0 | 0.0 | 0.00 | 0.00 | 0.00 | 64 | ||
| 20260903215750 | 77 | 226 | 0.0 | 0.0 | 0.00 | 0.00 | 0.00 | 63 | 1009.7 |
| 20260903215521 | 78 | 0.0 | 0.0 | 0.00 | 0.00 | 0.00 | 62 | ||
| 20260903214324 | 78 | 226 | 1.0 | 2.0 | 0.00 | 0.00 | 0.00 | 62 | 1009.4 |
| 20260903213806 | 78 | 251 | 1.0 | 0.0 | 0.00 | 0.00 | 0.00 | 59 | 1009.4 |
| 20260903212813 | 79 | 245 | 1.0 | 3.0 | 0.00 | 0.00 | 0.00 | 59 | 1009.3 |
| 20260903212252 | 80 | 0.0 | 0.0 | 0.00 | 0.00 | 0.00 | 56 | ||
| 20260903211330 | 80 | 243 | 0.0 | 0.0 | 0.00 | 0.00 | 0.00 | 57 | 1009.1 |
| 20260903210806 | 80 | 0.0 | 0.0 | 0.00 | 0.00 | 0.00 | 56 | ||
| 20260903205740 | 80 | 243 | 0.0 | 1.0 | 0.00 | 0.00 | 0.00 | 56 | 1008.9 |
| 20260903205239 | 81 | 266 | 0.0 | 1.0 | 0.00 | 0.00 | 0.00 | 55 | 1008.8 |
| 20260903204329 | 81 | 266 | 0.0 | 1.0 | 0.00 | 0.00 | 0.00 | 55 | 1008.7 |
| 20260903203814 | 81 | 0.0 | 0.0 | 0.00 | 0.00 | 0.00 | 53 | ||
| 20260903202951 | 81 | 243 | 0.0 | 1.0 | 0.00 | 0.00 | 0.00 | 53 | 1008.5 |
| 20260903202440 | 82 | 0.0 | 0.0 | 0.00 | 0.00 | 0.00 | 51 | ||
| 20260903201543 | 82 | 256 | 1.0 | 3.0 | 0.00 | 0.00 | 0.00 | 51 | 1008.4 |
| 20260903200758 | 83 | 0.0 | 0.0 | 0.00 | 0.00 | 0.00 | 50 | ||
| 20260903195527 | 83 | 0.0 | 0.0 | 0.00 | 0.00 | 0.00 | 50 | ||
| 20260903194255 | 83 | 252 | 1.0 | 2.0 | 0.00 | 0.00 | 0.00 | 50 | 1008.2 |
| 20260903194023 | 83 | 0.0 | 0.0 | 0.00 | 0.00 | 0.00 | 50 | ||
| 20260903192926 | 83 | 249 | 1.0 | 2.0 | 0.00 | 0.00 | 0.00 | 50 | 1008.2 |
| 20260903192402 | 83 | 0.0 | 0.0 | 0.00 | 0.00 | 0.00 | 49 | ||
| 20260903191300 | 83 | 312 | 1.0 | 2.0 | 0.00 | 0.00 | 0.00 | 49 | 1007.9 |
| 20260903190747 | 83 | 0.0 | 0.0 | 0.00 | 0.00 | 0.00 | 48 | ||
| 20260903185821 | 83 | 289 | 1.0 | 3.0 | 0.00 | 0.00 | 0.00 | 48 | 1008.1 |
| 20260903185809 | 83 | 0.0 | 0.0 | 0.00 | 0.00 | 0.00 | 48 | ||
| 20260903184742 | 83 | 282 | 1.0 | 3.0 | 0.00 | 0.00 | 0.00 | 48 | 1008.2 |
| 20260903183740 | 83 | 0.0 | 0.0 | 0.00 | 0.00 | 0.00 | 47 | ||
| 20260903182813 | 83 | 251 | 3.0 | 10.0 | 0.00 | 0.00 | 0.00 | 46 | 1008.3 |
| 20260903182256 | 84 | 0.0 | 0.0 | 0.00 | 0.00 | 0.00 | 46 | ||
| 20260903181327 | 84 | 293 | 2.0 | 8.0 | 0.00 | 0.00 | 0.00 | 46 | 1008.4 |
| 20260903180813 | 83 | 0.0 | 0.0 | 0.00 | 0.00 | 0.00 | 46 | ||
| 20260903175847 | 83 | 251 | 2.0 | 5.0 | 0.00 | 0.00 | 0.00 | 46 | 1008.5 |
| 20260903175337 | 83 | 0.0 | 0.0 | 0.00 | 0.00 | 0.00 | 46 | ||
| 20260903174305 | 83 | 230 | 3.0 | 10.0 | 0.00 | 0.00 | 0.00 | 45 | 1008.8 |
| 20260903173748 | 85 | 0.0 | 0.0 | 0.00 | 0.00 | 0.00 | 44 | ||
| 20260903173010 | 85 | 311 | 2.0 | 12.0 | 0.00 | 0.00 | 0.00 | 43 | 1008.7 |
| 20260903172239 | 86 | 0.0 | 0.0 | 0.00 | 0.00 | 0.00 | 44 | ||
| 20260903171325 | 86 | 355 | 2.0 | 5.0 | 0.00 | 0.00 | 0.00 | 44 | 1009.0 |
| 20260903170814 | 85 | 0.0 | 0.0 | 0.00 | 0.00 | 0.00 | 45 | ||
| 20260903165738 | 85 | 236 | 3.0 | 7.0 | 0.00 | 0.00 | 0.00 | 45 | 1009.2 |
| 20260903165235 | 84 | 0.0 | 0.0 | 0.00 | 0.00 | 0.00 | 44 | ||
| 20260903164237 | 84 | 295 | 2.0 | 8.0 | 0.00 | 0.00 | 0.00 | 46 | 1009.5 |
| 20260903163734 | 83 | 303 | 4.0 | 3.0 | 0.00 | 0.00 | 0.00 | 46 | 1009.5 |
| 20260903162830 | 83 | 340 | 4.0 | 11.0 | 0.00 | 0.00 | 0.00 | 47 | 1009.8 |
| 20260903162328 | 84 | 0.0 | 0.0 | 0.00 | 0.00 | 0.00 | 47 | ||
| 20260903161305 | 83 | 326 | 4.0 | 14.0 | 0.00 | 0.00 | 0.00 | 47 | 1009.9 |
| 20260903160751 | 83 | 0.0 | 0.0 | 0.00 | 0.00 | 0.00 | 50 | ||
| 20260903155928 | 83 | 299 | 4.0 | 10.0 | 0.00 | 0.00 | 0.00 | 49 | 1010.7 |
| 20260903155422 | 83 | 317 | 3.0 | 9.0 | 0.00 | 0.00 | 0.00 | 51 | 1010.7 |
| 20260903154918 | 82 | 333 | 2.0 | 4.0 | 0.00 | 0.00 | 0.00 | 54 | 1011.0 |
| 20260903154622 | 82 | 286 | 2.0 | 2.0 | 0.00 | 0.00 | 0.00 | 55 | 1011.0 |
| 20260903153845 | 80 | 0.0 | 0.0 | 0.00 | 0.00 | 0.00 | 55 | ||
| 20260903152811 | 80 | 37 | 2.0 | 5.0 | 0.00 | 0.00 | 0.00 | 56 | 1010.9 |
| 20260903152310 | 80 | 0.0 | 0.0 | 0.00 | 0.00 | 0.00 | 57 | ||
| 20260903151250 | 79 | 2 | 2.0 | 4.0 | 0.00 | 0.00 | 0.00 | 57 | 1011.2 |
| 20260903150750 | 79 | 327 | 3.0 | 4.0 | 0.00 | 0.00 | 0.00 | 57 | 1011.3 |
| 20260903145753 | 79 | 35 | 2.0 | 7.0 | 0.00 | 0.00 | 0.00 | 56 | 1011.7 |
| 20260903145252 | 78 | 0.0 | 0.0 | 0.00 | 0.00 | 0.00 | 57 | ||
| 20260903144332 | 78 | 17 | 2.0 | 8.0 | 0.00 | 0.00 | 0.00 | 57 | 1012.0 |
| 20260903144100 | 77 | 0.0 | 0.0 | 0.00 | 0.00 | 0.00 | 58 | ||
| 20260903142811 | 77 | 72 | 1.0 | 4.0 | 0.00 | 0.00 | 0.00 | 58 | 1012.4 |
| 20260903142309 | 77 | 0.0 | 0.0 | 0.00 | 0.00 | 0.00 | 58 | ||
| 20260903141251 | 77 | 3 | 2.0 | 5.0 | 0.00 | 0.00 | 0.00 | 57 | 1012.5 |
| 20260903140750 | 76 | 0.0 | 0.0 | 0.00 | 0.00 | 0.00 | 58 | ||
| 20260903135326 | 76 | 0.0 | 0.0 | 0.00 | 0.00 | 0.00 | 58 | ||
| 20260903134304 | 76 | 354 | 1.0 | 7.0 | 0.00 | 0.00 | 0.00 | 58 | 1012.8 |
| 20260903133745 | 75 | 0.0 | 0.0 | 0.00 | 0.00 | 0.00 | 59 | ||
| 20260903132818 | 75 | 357 | 1.0 | 5.0 | 0.00 | 0.00 | 0.00 | 60 | 1013.0 |
| 20260903132307 | 74 | 0.0 | 0.0 | 0.00 | 0.00 | 0.00 | 61 | ||
| 20260903131613 | 74 | 326 | 1.0 | 4.0 | 0.00 | 0.00 | 0.00 | 61 | 1013.2 |
| 20260903130833 | 73 | 0.0 | 0.0 | 0.00 | 0.00 | 0.00 | 63 | ||
| 20260903130035 | 73 | 298 | 1.0 | 4.0 | 0.00 | 0.00 | 0.00 | 63 | 1013.5 |
| 20260903125248 | 71 | 0.0 | 0.0 | 0.00 | 0.00 | 0.00 | 67 | ||
| 20260903124226 | 71 | 302 | 0.0 | 1.0 | 0.00 | 0.00 | 0.00 | 68 | 1013.7 |
| 20260903123726 | 69 | 320 | 0.0 | 0.0 | 0.00 | 0.00 | 0.00 | 71 | 1013.7 |
| 20260903123000 | 69 | 321 | 0.0 | 1.0 | 0.00 | 0.00 | 0.00 | 71 | 1013.8 |